project_name,platform_name,Date_(yyyymmdd),Time_(hh24miss),beacon_ID,latitude_DD,longitude_DD,altitude_m,altitude_result_value_type,speed_m_s,speed_result_value_type,direction_degrees,direction_result_value_type,fix,sat
BaySys,Amundsen,2008-01-05,18:27:07,300034012025330,71.5051,-125.3969,2.2269,Actual,,Calculated,318.5500,Calculated,1,7
BaySys,Amundsen,2008-01-07,20:52:09,300034012025330,71.5571,-125.6082,-3.1088,Actual,,Calculated,79.1300,Calculated,1,5
BaySys,Amundsen,2008-01-07,22:51:39,300034012025330,71.5563,-125.6087,34.9198,Actual,,Calculated,118.3500,Calculated,1,6
BaySys,Amundsen,2008-01-08,00:52:07,300034012025330,71.5544,-125.6068,-6.9307,Actual,,Calculated,251.8600,Calculated,1,8
BaySys,Amundsen,2008-01-08,02:52:06,300034012025330,71.5531,-125.6093,3.5674,Actual,,Calculated,278.0900,Calculated,1,8
BaySys,Amundsen,2008-01-08,04:51:43,300034012025330,71.5525,-125.6165,-9.4434,Actual,,Calculated,234.1400,Calculated,1,8
BaySys,Amundsen,2008-01-08,06:52:24,300034012025330,71.5519,-125.6247,0.3995,Actual,,Calculated,250.6500,Calculated,1,8
BaySys,Amundsen,2008-01-08,08:51:50,300034012025330,71.5507,-125.6297,3.5720,Actual,,Calculated,275.6200,Calculated,1,8
BaySys,Amundsen,2008-01-08,10:52:30,300034012025330,71.5491,-125.6299,-14.7007,Actual,,Calculated,161.8800,Calculated,1,7
BaySys,Amundsen,2008-01-08,12:52:30,300034012025330,71.5480,-125.6304,-2.2118,Actual,,Calculated,195.8700,Calculated,1,8
BaySys,Amundsen,2008-01-08,14:52:30,300034012025330,71.5478,-125.6339,-8.6939,Actual,,Calculated,331.7200,Calculated,1,6
BaySys,Amundsen,2008-01-08,16:51:51,300034012025330,71.5481,-125.6420,-1.9261,Actual,,Calculated,239.6400,Calculated,1,8
BaySys,Amundsen,2008-01-08,18:52:03,300034012025330,71.5488,-125.6537,2.8255,Actual,,Calculated,288.2800,Calculated,1,6
BaySys,Amundsen,2008-01-08,20:52:23,300034012025330,71.5488,-125.6621,-3.7436,Actual,,Calculated,67.5600,Calculated,1,8
BaySys,Amundsen,2008-01-08,22:52:23,300034012025330,71.5475,-125.6657,7.1013,Actual,,Calculated,172.8200,Calculated,1,8
BaySys,Amundsen,2008-01-09,22:52:44,300034012025330,71.5505,-125.8067,5.8294,Actual,,Calculated,328.5000,Calculated,1,7
BaySys,Amundsen,2008-01-10,00:53:00,300034012025330,71.5502,-125.8236,-7.1860,Actual,,Calculated,266.8500,Calculated,1,7
BaySys,Amundsen,2008-01-10,02:52:43,300034012025330,71.5516,-125.8383,-2.5812,Actual,,Calculated,310.1900,Calculated,1,7
BaySys,Amundsen,2008-01-10,04:52:51,300034012025330,71.5563,-125.8576,-9.6035,Actual,,Calculated,194.5200,Calculated,1,8
BaySys,Amundsen,2008-01-10,06:52:45,300034012025330,71.5652,-125.8841,51.6818,Actual,,Calculated,62.8300,Calculated,1,12
BaySys,Amundsen,2008-01-10,08:52:52,300034012025330,71.5756,-125.9094,-4.1085,Actual,,Calculated,325.6900,Calculated,1,9
BaySys,Amundsen,2008-01-10,10:53:23,300034012025330,71.5849,-125.9292,-5.5304,Actual,,Calculated,323.3800,Calculated,1,10
BaySys,Amundsen,2008-01-10,12:53:08,300034012025330,71.5921,-125.9493,-7.8479,Actual,,Calculated,230.3400,Calculated,1,10
BaySys,Amundsen,2008-01-10,14:52:54,300034012025330,71.5996,-125.9776,3.7895,Actual,,Calculated,329.3600,Calculated,1,6
BaySys,Amundsen,2008-01-10,16:52:59,300034012025330,71.6120,-126.0127,-13.0736,Actual,,Calculated,344.1300,Calculated,1,8
BaySys,Amundsen,2008-01-10,18:53:01,300034012025330,71.6288,-126.0521,14.1294,Actual,,Calculated,319.9300,Calculated,1,10
BaySys,Amundsen,2008-01-10,20:53:35,300034012025330,71.6459,-126.0858,2.6311,Actual,,Calculated,359.2800,Calculated,1,11
BaySys,Amundsen,2008-01-10,22:53:29,300034012025330,71.6602,-126.1106,8.9027,Actual,,Calculated,332.6400,Calculated,1,7
BaySys,Amundsen,2008-01-11,00:53:05,300034012025330,71.6718,-126.1321,-9.1884,Actual,,Calculated,318.4700,Calculated,1,9
BaySys,Amundsen,2008-01-11,02:53:01,300034012025330,71.6851,-126.1566,-1.1079,Actual,,Calculated,323.9000,Calculated,1,9
BaySys,Amundsen,2008-01-11,04:53:16,300034012025330,71.7001,-126.1840,-10.8257,Actual,,Calculated,330.5500,Calculated,1,9
BaySys,Amundsen,2008-01-11,06:53:15,300034012025330,71.7156,-126.2118,41.5639,Actual,,Calculated,57.2800,Calculated,1,13
BaySys,Amundsen,2008-01-11,08:53:09,300034012025330,71.7309,-126.2272,-10.5150,Actual,,Calculated,343.3200,Calculated,1,7
BaySys,Amundsen,2008-01-11,10:53:06,300034012025330,71.7411,-126.2376,-8.8818,Actual,,Calculated,300.9800,Calculated,1,9
BaySys,Amundsen,2008-01-11,12:53:35,300034012025330,71.7445,-126.2386,-9.5115,Actual,,Calculated,285.0300,Calculated,1,8
BaySys,Amundsen,2008-01-11,14:53:39,300034012025330,71.7454,-126.2390,41.1051,Actual,,Calculated,137.2700,Calculated,1,8
BaySys,Amundsen,2008-01-11,16:53:18,300034012025330,71.7474,-126.2446,13.6146,Actual,,Calculated,319.8900,Calculated,1,7
BaySys,Amundsen,2008-01-11,18:53:18,300034012025330,71.7519,-126.2530,8.1390,Actual,,Calculated,358.3500,Calculated,1,12
BaySys,Amundsen,2008-01-11,20:53:53,300034012025330,71.7547,-126.2568,-8.0598,Actual,,Calculated,12.9300,Calculated,1,11
BaySys,Amundsen,2008-01-11,22:53:38,300034012025330,71.7550,-126.2547,-0.6419,Actual,,Calculated,227.7400,Calculated,1,11
BaySys,Amundsen,2008-01-12,00:53:25,300034012025330,71.7543,-126.2498,6.0283,Actual,,Calculated,117.3400,Calculated,1,8
BaySys,Amundsen,2008-01-12,02:54:05,300034012025330,71.7534,-126.2476,4.6118,Actual,,Calculated,242.9500,Calculated,1,8
BaySys,Amundsen,2008-01-12,04:54:05,300034012025330,71.7533,-126.2475,0.6335,Actual,,Calculated,60.1200,Calculated,1,11
BaySys,Amundsen,2008-01-12,06:53:45,300034012025330,71.7532,-126.2471,-0.0633,Actual,,Calculated,58.3300,Calculated,1,11
BaySys,Amundsen,2008-01-12,08:53:35,300034012025330,71.7533,-126.2458,0.7331,Actual,,Calculated,256.5400,Calculated,1,8
BaySys,Amundsen,2008-01-12,10:53:33,300034012025330,71.7525,-126.2407,18.6332,Actual,,Calculated,159.3300,Calculated,1,8
BaySys,Amundsen,2008-01-12,12:54:05,300034012025330,71.7502,-126.2339,-11.7293,Actual,,Calculated,178.2400,Calculated,1,12
BaySys,Amundsen,2008-01-12,14:54:05,300034012025330,71.7475,-126.2268,-3.3648,Actual,,Calculated,310.3900,Calculated,1,8
BaySys,Amundsen,2008-01-12,18:53:47,300034012025330,71.7450,-126.2239,-120.0025,Actual,,Calculated,277.7500,Calculated,1,12
BaySys,Amundsen,2008-01-12,20:53:44,300034012025330,71.7451,-126.2265,-14.9517,Actual,,Calculated,301.3000,Calculated,1,10
BaySys,Amundsen,2008-01-13,22:54:53,300034012025330,71.7304,-126.3898,-8.6474,Actual,,Calculated,137.0900,Calculated,1,12
BaySys,Amundsen,2008-01-14,00:54:28,300034012025330,71.7277,-126.4255,-4.6094,Actual,,Calculated,230.4900,Calculated,1,8
BaySys,Amundsen,2008-01-14,02:54:59,300034012025330,71.7231,-126.4613,2.0115,Actual,,Calculated,254.9000,Calculated,1,8
BaySys,Amundsen,2008-01-14,04:54:27,300034012025330,71.7181,-126.5029,-13.8982,Actual,,Calculated,271.5200,Calculated,1,9
BaySys,Amundsen,2008-01-14,06:55:05,300034012025330,71.7144,-126.5504,-3.1459,Actual,,Calculated,324.7100,Calculated,1,10
BaySys,Amundsen,2008-01-14,08:55:05,300034012025330,71.7126,-126.6006,-3.3562,Actual,,Calculated,267.2100,Calculated,1,10
BaySys,Amundsen,2008-01-14,10:54:54,300034012025330,71.7114,-126.6495,-8.6524,Actual,,Calculated,258.5700,Calculated,1,8
BaySys,Amundsen,2008-01-14,12:54:33,300034012025330,71.7069,-126.6917,-7.2347,Actual,,Calculated,255.7300,Calculated,1,12
BaySys,Amundsen,2008-01-14,14:55:05,300034012025330,71.7002,-126.7298,-4.1105,Actual,,Calculated,258.8900,Calculated,1,6
BaySys,Amundsen,2008-01-14,16:54:42,300034012025330,71.6947,-126.7653,-24.7574,Actual,,Calculated,245.5200,Calculated,1,8
BaySys,Amundsen,2008-01-14,18:55:05,300034012025330,71.6910,-126.8002,-6.3731,Actual,,Calculated,32.0900,Calculated,1,12
BaySys,Amundsen,2008-01-14,20:54:43,300034012025330,71.6880,-126.8251,-10.2446,Actual,,Calculated,278.1300,Calculated,1,8
BaySys,Amundsen,2008-01-14,22:55:14,300034012025330,71.6833,-126.8404,-1.8705,Actual,,Calculated,228.4000,Calculated,1,13
BaySys,Amundsen,2008-01-15,00:54:50,300034012025330,71.6761,-126.8586,-4.3642,Actual,,Calculated,186.3100,Calculated,1,8
BaySys,Amundsen,2008-01-15,02:55:35,300034012025330,71.6685,-126.8790,-7.3945,Actual,,Calculated,206.2500,Calculated,1,9
BaySys,Amundsen,2008-01-15,04:55:35,300034012025330,71.6622,-126.8948,-10.7169,Actual,,Calculated,299.8300,Calculated,1,10
BaySys,Amundsen,2008-01-15,06:54:59,300034012025330,71.6599,-126.8999,-32.8932,Actual,,Calculated,327.4400,Calculated,1,12
BaySys,Amundsen,2008-01-15,08:55:04,300034012025330,71.6582,-126.9003,-4.2085,Actual,,Calculated,196.8500,Calculated,1,11
BaySys,Amundsen,2008-01-15,10:55:29,300034012025330,71.6561,-126.9014,-4.7167,Actual,,Calculated,288.5600,Calculated,1,12
BaySys,Amundsen,2008-01-15,12:55:02,300034012025330,71.6541,-126.9030,-10.1915,Actual,,Calculated,283.0000,Calculated,1,11
BaySys,Amundsen,2008-01-15,14:55:35,300034012025330,71.6525,-126.9049,-0.9308,Actual,,Calculated,357.0000,Calculated,1,7
BaySys,Amundsen,2008-01-15,16:55:19,300034012025330,71.6511,-126.9055,-4.6652,Actual,,Calculated,225.6400,Calculated,1,9
BaySys,Amundsen,2008-01-15,18:55:14,300034012025330,71.6502,-126.9056,15.7841,Actual,,Calculated,262.5300,Calculated,1,12
BaySys,Amundsen,2008-01-15,20:55:13,300034012025330,71.6490,-126.9050,-32.1768,Actual,,Calculated,21.1900,Calculated,1,12
BaySys,Amundsen,2008-01-15,22:55:53,300034012025330,71.6483,-126.9048,-14.6815,Actual,,Calculated,315.8100,Calculated,1,13
BaySys,Amundsen,2008-01-17,16:56:12,300034012025330,71.6611,-127.0118,-11.5820,Actual,,Calculated,328.2700,Calculated,1,9
BaySys,Amundsen,2008-01-17,22:56:20,300034012025330,71.6716,-127.0525,-10.1732,Actual,,Calculated,255.8300,Calculated,1,7
BaySys,Amundsen,2008-01-18,06:56:38,300034012025330,71.6880,-127.1141,47.0698,Actual,,Calculated,155.0400,Calculated,1,8
BaySys,Amundsen,2008-01-18,08:58:08,300034012025330,71.6919,-127.1238,-5.7557,Actual,,Calculated,313.3500,Calculated,1,11
BaySys,Amundsen,2008-01-18,12:56:52,300034012025330,71.7022,-127.1542,-2.8544,Actual,,Calculated,7.4200,Calculated,1,8
BaySys,Amundsen,2008-01-18,14:57:29,300034012025330,71.7080,-127.1657,-6.9888,Actual,,Calculated,272.1800,Calculated,1,6
BaySys,Amundsen,2008-01-18,16:57:02,300034012025330,71.7107,-127.1693,-3.8348,Actual,,Calculated,330.3600,Calculated,1,7
BaySys,Amundsen,2008-01-18,18:57:04,300034012025330,71.7106,-127.1669,5.0389,Actual,,Calculated,122.0400,Calculated,1,10
BaySys,Amundsen,2008-01-18,20:57:35,300034012025330,71.7098,-127.1631,-8.7694,Actual,,Calculated,54.2900,Calculated,1,10
BaySys,Amundsen,2008-01-18,22:57:18,300034012025330,71.7086,-127.1622,0.0019,Actual,,Calculated,81.4200,Calculated,1,8
BaySys,Amundsen,2008-01-19,00:57:10,300034012025330,71.7076,-127.1657,0.9367,Actual,,Calculated,186.2600,Calculated,1,9
BaySys,Amundsen,2008-01-19,02:57:35,300034012025330,71.7067,-127.1750,3.5331,Actual,,Calculated,241.4400,Calculated,1,7
BaySys,Amundsen,2008-01-19,04:57:25,300034012025330,71.7054,-127.1848,-8.4208,Actual,,Calculated,164.4700,Calculated,1,5
BaySys,Amundsen,2008-01-20,02:57:58,300034012025330,71.7045,-127.2771,-12.1080,Actual,,Calculated,316.4700,Calculated,1,7
BaySys,Amundsen,2008-01-20,04:58:29,300034012025330,71.7103,-127.3052,-12.5934,Actual,,Calculated,310.8200,Calculated,1,10
BaySys,Amundsen,2008-01-20,06:58:23,300034012025330,71.7174,-127.3341,5.3002,Actual,,Calculated,302.8200,Calculated,1,8
BaySys,Amundsen,2008-01-20,08:58:00,300034012025330,71.7249,-127.3637,-20.0030,Actual,,Calculated,304.1700,Calculated,1,9
BaySys,Amundsen,2008-01-20,10:58:29,300034012025330,71.7344,-127.3987,-5.4038,Actual,,Calculated,317.8300,Calculated,1,11
BaySys,Amundsen,2008-01-20,12:58:27,300034012025330,71.7473,-127.4403,-11.7358,Actual,,Calculated,308.6500,Calculated,1,10
BaySys,Amundsen,2008-01-20,14:58:35,300034012025330,71.7633,-127.4825,-2.2946,Actual,,Calculated,314.4100,Calculated,1,10
BaySys,Amundsen,2008-01-20,16:58:30,300034012025330,71.7800,-127.5263,-9.7927,Actual,,Calculated,320.9900,Calculated,1,10
BaySys,Amundsen,2008-01-20,18:58:35,300034012025330,71.7982,-127.5680,-0.2097,Actual,,Calculated,9.1800,Calculated,1,11
BaySys,Amundsen,2008-01-20,20:58:24,300034012025330,71.8168,-127.5999,-13.4061,Actual,,Calculated,324.5900,Calculated,1,8
BaySys,Amundsen,2008-01-20,22:58:07,300034012025330,71.8354,-127.6246,-6.1509,Actual,,Calculated,338.8900,Calculated,1,9
BaySys,Amundsen,2008-01-21,00:58:35,300034012025330,71.8566,-127.6484,-6.5236,Actual,,Calculated,337.1100,Calculated,1,7
BaySys,Amundsen,2008-01-21,02:58:13,300034012025330,71.8798,-127.6693,-8.3793,Actual,,Calculated,359.5800,Calculated,1,10
BaySys,Amundsen,2008-01-21,04:58:25,300034012025330,71.9024,-127.6871,-6.4125,Actual,,Calculated,336.4800,Calculated,1,5
BaySys,Amundsen,2008-01-21,06:58:21,300034012025330,71.9226,-127.7063,3.5825,Actual,,Calculated,332.2200,Calculated,1,10
BaySys,Amundsen,2008-01-21,08:58:35,300034012025330,71.9408,-127.7179,-0.6767,Actual,,Calculated,349.1900,Calculated,1,5
BaySys,Amundsen,2008-01-21,10:58:24,300034012025330,71.9576,-127.7249,-7.0921,Actual,,Calculated,323.7100,Calculated,1,9
BaySys,Amundsen,2008-01-21,12:58:59,300034012025330,71.9731,-127.7304,-16.9280,Actual,,Calculated,344.0100,Calculated,1,8
BaySys,Amundsen,2008-01-21,14:59:05,300034012025330,71.9884,-127.7360,-9.3791,Actual,,Calculated,359.3600,Calculated,1,8
BaySys,Amundsen,2008-01-21,16:58:54,300034012025330,72.0013,-127.7390,4.9601,Actual,,Calculated,358.0900,Calculated,1,10
BaySys,Amundsen,2008-01-21,18:59:05,300034012025330,72.0051,-127.7400,-3.8489,Actual,,Calculated,61.0300,Calculated,1,12
BaySys,Amundsen,2008-01-21,20:58:56,300034012025330,71.9991,-127.7458,-4.6282,Actual,,Calculated,190.5000,Calculated,1,9
BaySys,Amundsen,2008-01-21,22:58:36,300034012025330,71.9920,-127.7613,30.3553,Actual,,Calculated,222.3300,Calculated,1,8
BaySys,Amundsen,2008-01-22,00:58:41,300034012025330,71.9893,-127.7754,-8.0682,Actual,,Calculated,211.3700,Calculated,1,8
BaySys,Amundsen,2008-01-22,02:59:05,300034012025330,71.9908,-127.7857,-5.5719,Actual,,Calculated,338.1700,Calculated,1,9
BaySys,Amundsen,2008-01-22,04:58:56,300034012025330,71.9934,-127.7874,2.6015,Actual,,Calculated,159.0500,Calculated,1,7
BaySys,Amundsen,2008-01-22,06:59:05,300034012025330,71.9952,-127.7842,-0.8660,Actual,,Calculated,300.9100,Calculated,1,11
BaySys,Amundsen,2008-01-22,08:58:56,300034012025330,71.9963,-127.7847,4.6931,Actual,,Calculated,293.8100,Calculated,1,11
BaySys,Amundsen,2008-01-22,10:58:46,300034012025330,71.9989,-127.7910,-6.4387,Actual,,Calculated,2.5800,Calculated,1,11
BaySys,Amundsen,2008-01-22,12:58:41,300034012025330,72.0060,-127.7965,-6.0264,Actual,,Calculated,290.7800,Calculated,1,7
BaySys,Amundsen,2008-01-22,14:59:00,300034012025330,72.0134,-127.8041,-9.0722,Actual,,Calculated,336.1400,Calculated,1,9
BaySys,Amundsen,2008-01-22,16:58:48,300034012025330,72.0189,-127.8109,0.7031,Actual,,Calculated,272.7900,Calculated,1,12
BaySys,Amundsen,2008-01-22,16:58:48,300034012025330,72.0189,-127.8109,0.7031,Actual,,Calculated,272.7900,Calculated,1,12
BaySys,Amundsen,2008-01-22,18:58:47,300034012025330,72.0216,-127.8221,0.6304,Actual,,Calculated,69.8900,Calculated,1,9
BaySys,Amundsen,2008-01-22,18:58:47,300034012025330,72.0216,-127.8221,0.6304,Actual,,Calculated,69.8900,Calculated,1,9
BaySys,Amundsen,2008-01-22,20:59:23,300034012025330,72.0236,-127.8412,-3.8381,Actual,,Calculated,282.7300,Calculated,1,9
BaySys,Amundsen,2008-01-22,20:59:23,300034012025330,72.0236,-127.8412,-3.8381,Actual,,Calculated,282.7300,Calculated,1,9
BaySys,Amundsen,2008-01-22,22:59:12,300034012025330,72.0266,-127.8658,-2.0496,Actual,,Calculated,249.6800,Calculated,1,8
BaySys,Amundsen,2008-01-22,22:59:12,300034012025330,72.0266,-127.8658,-2.0496,Actual,,Calculated,249.6800,Calculated,1,8
BaySys,Amundsen,2008-01-23,00:58:56,300034012025330,72.0320,-127.8931,-2.5641,Actual,,Calculated,306.4400,Calculated,1,8
BaySys,Amundsen,2008-01-23,00:58:56,300034012025330,72.0320,-127.8931,-2.5641,Actual,,Calculated,306.4400,Calculated,1,8
BaySys,Amundsen,2008-01-23,02:58:59,300034012025330,72.0399,-127.9194,-4.3308,Actual,,Calculated,333.1800,Calculated,1,9
BaySys,Amundsen,2008-01-23,02:58:59,300034012025330,72.0399,-127.9194,-4.3308,Actual,,Calculated,333.1800,Calculated,1,9
BaySys,Amundsen,2008-01-23,04:59:29,300034012025330,72.0486,-127.9384,-12.7402,Actual,,Calculated,163.7600,Calculated,1,10
BaySys,Amundsen,2008-01-23,04:59:29,300034012025330,72.0486,-127.9384,-12.7402,Actual,,Calculated,163.7600,Calculated,1,10
BaySys,Amundsen,2008-01-23,06:59:53,300034012025330,72.0510,-127.9594,4.6254,Actual,,Calculated,260.2900,Calculated,1,10
BaySys,Amundsen,2008-01-23,06:59:53,300034012025330,72.0510,-127.9594,4.6254,Actual,,Calculated,260.2900,Calculated,1,10
BaySys,Amundsen,2008-01-23,08:59:24,300034012025330,72.0449,-127.9849,-7.3058,Actual,,Calculated,222.3100,Calculated,1,11
BaySys,Amundsen,2008-01-23,08:59:24,300034012025330,72.0449,-127.9849,-7.3058,Actual,,Calculated,222.3100,Calculated,1,11
BaySys,Amundsen,2008-01-23,10:59:11,300034012025330,72.0327,-128.0176,9.9410,Actual,,Calculated,241.6400,Calculated,1,7
BaySys,Amundsen,2008-01-23,10:59:11,300034012025330,72.0327,-128.0176,9.9410,Actual,,Calculated,241.6400,Calculated,1,7
BaySys,Amundsen,2008-01-23,12:59:35,300034012025330,72.0230,-128.0620,-2.4416,Actual,,Calculated,250.8700,Calculated,1,8
BaySys,Amundsen,2008-01-23,12:59:35,300034012025330,72.0230,-128.0620,-2.4416,Actual,,Calculated,250.8700,Calculated,1,8
BaySys,Amundsen,2008-01-24,15:00:07,300034012025330,71.9743,-128.0474,0.8926,Actual,,Calculated,177.3400,Calculated,1,10
BaySys,Amundsen,2008-01-24,16:59:34,300034012025330,71.9524,-128.0543,-13.3322,Actual,,Calculated,189.1500,Calculated,1,8
BaySys,Amundsen,2008-01-24,19:00:05,300034012025330,71.9393,-128.0737,-2.1255,Actual,,Calculated,235.4900,Calculated,1,11
BaySys,Amundsen,2008-01-24,20:59:42,300034012025330,71.9349,-128.0843,-13.2667,Actual,,Calculated,282.3100,Calculated,1,9
BaySys,Amundsen,2008-01-24,22:59:54,300034012025330,71.9347,-128.0729,-21.3977,Actual,,Calculated,110.6700,Calculated,1,5
BaySys,Amundsen,2008-01-25,01:00:05,300034012025330,71.9323,-128.0434,-8.6439,Actual,,Calculated,172.7900,Calculated,1,9
BaySys,Amundsen,2008-01-25,02:59:52,300034012025330,71.9280,-128.0173,-17.8567,Actual,,Calculated,136.7900,Calculated,1,7
BaySys,Amundsen,2008-01-25,05:01:45,300034012025330,71.9245,-128.0128,-7.3438,Actual,,Calculated,239.5000,Calculated,1,10
BaySys,Amundsen,2008-01-25,08:59:54,300034012025330,71.9325,-128.0303,-1.0611,Actual,,Calculated,39.0000,Calculated,1,7
BaySys,Amundsen,2008-01-25,10:59:57,300034012025330,71.9369,-128.0149,-2.4549,Actual,,Calculated,37.8000,Calculated,1,10
BaySys,Amundsen,2008-01-25,12:59:59,300034012025330,71.9372,-128.0002,-4.4451,Actual,,Calculated,341.8600,Calculated,1,8
BaySys,Amundsen,2008-01-25,15:00:35,300034012025330,71.9359,-127.9963,-0.6417,Actual,,Calculated,117.1200,Calculated,1,9
BaySys,Amundsen,2008-01-25,17:00:06,300034012025330,71.9347,-128.0051,-7.0906,Actual,,Calculated,270.6200,Calculated,1,9
BaySys,Amundsen,2008-01-25,19:00:35,300034012025330,71.9343,-128.0228,-6.1784,Actual,,Calculated,269.0500,Calculated,1,6
BaySys,Amundsen,2008-01-25,21:00:17,300034012025330,71.9330,-128.0343,-6.2070,Actual,,Calculated,218.9700,Calculated,1,12
BaySys,Amundsen,2008-01-25,23:00:25,300034012025330,71.9261,-128.0331,-6.1392,Actual,,Calculated,180.9200,Calculated,1,7
BaySys,Amundsen,2008-01-26,01:00:17,300034012025330,71.9135,-128.0224,0.4823,Actual,,Calculated,154.9100,Calculated,1,8
BaySys,Amundsen,2008-01-26,03:00:53,300034012025330,71.8972,-128.0085,-8.3244,Actual,,Calculated,186.5800,Calculated,1,9
BaySys,Amundsen,2008-01-26,05:00:18,300034012025330,71.8826,-128.0036,-10.0255,Actual,,Calculated,160.4500,Calculated,1,8
BaySys,Amundsen,2008-01-26,09:00:53,300034012025330,71.8691,-128.0145,-11.1293,Actual,,Calculated,200.3900,Calculated,1,12
BaySys,Amundsen,2008-01-31,23:23:04,300034012025330,71.8101,-127.9183,22.9351,Actual,,Calculated,173.0600,Calculated,1,8
BaySys,Amundsen,2008-02-01,01:23:35,300034012025330,71.8017,-127.9120,1.2462,Actual,,Calculated,167.4800,Calculated,1,7
BaySys,Amundsen,2008-02-01,03:23:12,300034012025330,71.7935,-127.9065,-0.8182,Actual,,Calculated,157.0200,Calculated,1,7
BaySys,Amundsen,2008-02-01,05:23:48,300034012025330,71.7869,-127.9027,3.1390,Actual,,Calculated,193.3000,Calculated,1,11
BaySys,Amundsen,2008-02-01,07:23:16,300034012025330,71.7823,-127.8996,-1.7445,Actual,,Calculated,147.0000,Calculated,1,9
BaySys,Amundsen,2008-02-01,09:23:42,300034012025330,71.7766,-127.8914,-3.5146,Actual,,Calculated,114.0400,Calculated,1,9
BaySys,Amundsen,2008-02-01,11:23:37,300034012025330,71.7721,-127.8830,-7.2306,Actual,,Calculated,208.7300,Calculated,1,7
BaySys,Amundsen,2008-02-01,13:23:33,300034012025330,71.7678,-127.8760,-3.1437,Actual,,Calculated,149.4400,Calculated,1,5
BaySys,Amundsen,2008-02-01,15:23:24,300034012025330,71.7649,-127.8715,-1.5551,Actual,,Calculated,165.2200,Calculated,1,9
BaySys,Amundsen,2008-02-01,17:23:25,300034012025330,71.7646,-127.8711,4.8243,Actual,,Calculated,127.0300,Calculated,1,10
BaySys,Amundsen,2008-02-01,19:24:25,300034012025330,71.7647,-127.8711,-1834.7550,Actual,,Calculated,141.1800,Calculated,1,12
BaySys,Amundsen,2008-02-01,21:23:27,300034012025330,71.7646,-127.8704,-23.8924,Actual,,Calculated,135.2500,Calculated,1,11
BaySys,Amundsen,2008-02-01,23:23:54,300034012025330,71.7638,-127.8655,-9.4166,Actual,,Calculated,131.2500,Calculated,1,8
BaySys,Amundsen,2008-02-02,03:23:46,300034012025330,71.7634,-127.8618,-13.2312,Actual,,Calculated,289.7800,Calculated,1,7
BaySys,Amundsen,2008-02-02,07:23:45,300034012025330,71.7634,-127.8622,-20.1842,Actual,,Calculated,43.6000,Calculated,1,6
BaySys,Amundsen,2008-02-02,09:24:18,300034012025330,71.7635,-127.8621,-1.5459,Actual,,Calculated,224.0000,Calculated,1,13
BaySys,Amundsen,2008-02-02,13:24:35,300034012025330,71.7635,-127.8622,1.9700,Actual,,Calculated,33.8700,Calculated,1,8
BaySys,Amundsen,2008-02-02,15:24:29,300034012025330,71.7635,-127.8621,-3.0437,Actual,,Calculated,320.6800,Calculated,1,9
BaySys,Amundsen,2008-02-02,17:23:50,300034012025330,71.7636,-127.8622,6.6665,Actual,,Calculated,308.2700,Calculated,1,9
BaySys,Amundsen,2008-02-02,21:24:29,300034012025330,71.7635,-127.8622,-2.9008,Actual,,Calculated,304.1800,Calculated,1,14
BaySys,Amundsen,2008-02-03,01:24:06,300034012025330,71.7635,-127.8627,-3.8665,Actual,,Calculated,306.4300,Calculated,1,6
BaySys,Amundsen,2008-02-03,03:24:09,300034012025330,71.7634,-127.8620,-16.6610,Actual,,Calculated,142.0300,Calculated,1,8
BaySys,Amundsen,2008-02-03,23:24:59,300034012025330,71.7635,-127.8621,-9.4098,Actual,,Calculated,142.2100,Calculated,1,11
BaySys,Amundsen,2008-02-05,13:25:42,300034012025330,71.7635,-127.8620,64.0710,Actual,,Calculated,14.8300,Calculated,1,6
BaySys,Amundsen,2008-02-05,15:25:35,300034012025330,71.7635,-127.8619,-8.0104,Actual,,Calculated,303.6200,Calculated,1,11
BaySys,Amundsen,2008-02-05,17:25:38,300034012025330,71.7635,-127.8619,0.6690,Actual,,Calculated,252.1800,Calculated,1,10
BaySys,Amundsen,2008-02-05,19:25:53,300034012025330,71.7635,-127.8619,-14.6965,Actual,,Calculated,259.3200,Calculated,1,11
BaySys,Amundsen,2008-02-05,21:25:31,300034012025330,71.7635,-127.8619,-1.5554,Actual,,Calculated,29.1600,Calculated,1,6
BaySys,Amundsen,2008-02-05,23:25:25,300034012025330,71.7635,-127.8620,-3.9980,Actual,,Calculated,129.9900,Calculated,1,8
BaySys,Amundsen,2008-02-08,19:56:21,300034012025330,71.7634,-127.8616,51.2321,Actual,,Calculated,278.1300,Calculated,1,10
BaySys,Amundsen,2008-02-08,21:56:15,300034012025330,71.7613,-127.8511,-14.2683,Actual,,Calculated,30.4700,Calculated,1,11
BaySys,Amundsen,2008-02-09,11:56:55,300034012025330,71.7473,-127.8096,-14.7988,Actual,,Calculated,208.9400,Calculated,1,7
BaySys,Amundsen,2008-02-09,15:56:41,300034012025330,71.7472,-127.8097,-1.5405,Actual,,Calculated,286.2600,Calculated,1,8
BaySys,Amundsen,2008-02-09,17:56:43,300034012025330,71.7473,-127.8096,-3.8214,Actual,,Calculated,18.3800,Calculated,1,12
BaySys,Amundsen,2008-02-09,19:56:42,300034012025330,71.7473,-127.8096,-7.2812,Actual,,Calculated,34.4900,Calculated,1,10